Temperature
20 20 20 19 19 19 19 19 19 19 19 19 19 18 18 18 18 18 18 18 18 18 18 18 18 18 18 18 18 18 17 17 17 17 18 18 18 18 17 17 17 17 17
20 20 20 19 19 19 19 19 19 19 18 18 18 18 18 18 18 18 18 17 17 17 17 17 17 17 17 17 17 17 17 17 17 17 17 17 17 17 17 17 17 17 17
20 19 19 19 19 19 19 19 19 18 18 18 18 18 18 18 18 17 17 17 17 17 17 17 17 17 17 17 17 17 17 17 17 17 17 17 17 17 17 17 17 16 16
20 19 19 19 19 18 18 18 18 18 18 18 17 17 17 17 17 17 17 17 17 17 17 17 17 17 17 17 17 17 17 17 17 16 16 16 16 17 16 16 16 16 16
19 19 18 18 18 18 18 18 18 17 17 17 17 17 17 17 17 17 17 17 17 17 16 16 16 16 16 16 16 16 16 16 16 16 16 16 16 16 16 16 16 16 16
19 19 18 18 18 18 17 17 17 17 17 17 17 17 16 16 16 16 16 16 16 16 16 16 16 16 16 16 16 16 16 16 16 16 16 16 16 16 16 15 15 15 15
19 18 18 18 18 17 17 17 17 17 17 16 16 16 16 16 16 16 16 16 16 16 16 15 15 15 15 15 16 16 16 16 15 15 15 15 15 15 15 15 15 15 15
19 18 18 18 17 17 17 17 16 16 16 16 16 16 16 15 15 15 15 15 15 15 15 15 15 15 15 15 15 15 15 15 15 15 15 15 15 15 15 15 15 15 14
18 18 17 17 17 17 16 16 16 16 16 16 15 15 15 15 15 15 15 15 15 15 15 15 15 15 15 15 15 15 15 15 15 14 14 15 15 15 15 15 14 14 14
17 17 17 16 16 16 16 16 15 15 15 15 15 15 15 15 15 15 15 14 14 14 14 14 14 14 14 14 14 14 14 14 14 14 14 14 14 14 14 14 14 14 14
16 16 16 16 16 16 15 15 15 15 15 15 15 15 15 15 14 14 14 14 14 14 14 14 14 14 14 14 14 14 13 14 14 14 14 14 14 14 14 14 14 13 13
16 16 16 15 15 15 15 15 15 15 15 15 15 15 15 14 14 14 14 14 14 13 13 13 13 13 13 13 13 13 13 13 13 13 13 13 13 13 13 13 13 13 13
15 15 15 15 15 14 14 14 14 14 14 14 14 14 14 14 14 14 14 13 13 13 13 13 13 13 13 13 13 13 13 13 13 13 13 13 13 13 13 13 13 13 13
15 15 15 14 14 14 14 14 14 14 14 14 14 14 13 13 13 13 13 13 13 12 12 12 12 12 12 12 12 12 12 12 12 12 12 12 12 12 12 12 12 12 12
14 14 14 14 14 14 14 14 14 14 13 13 13 13 13 13 12 12 12 12 12 12 12 12 12 12 12 12 12 12 12 12 12 12 12 12 12 12 12 12 12 12 12
14 14 14 14 14 14 14 13 13 13 13 13 13 13 12 12 12 12 12 12 12 11 11 11 12 11 11 11 12 11 11 11 11 11 11 11 11 11 11 11 11 11 11
14 13 13 13 13 13 13 13 13 13 13 13 13 12 12 12 12 12 12 11 11 11 11 11 11 11 11 11 11 11 11 11 11 11 11 11 11 11 11 11 11 10 10
13 13 13 13 13 13 13 13 13 13 12 12 12 12 12 12 12 11 11 11 11 11 11 11 11 10 10 10 10 10 10 10 10 10 10 10 10 10 10 10 10 10 10
13 13 13 13 13 13 13 13 13 12 12 12 12 12 12 11 11 11 11 10 10 10 10 10 10 10 10 10 10 10 10 10 10 10 10 10 10 10 10 10 9 9 9
13 13 13 13 12 13 13 13 12 12 12 12 12 11 11 11 11 10 10 10 10 10 10 10 10 10 10 10 9 9 9 9 9 9 9 9 9 9 9 9 9 9 9
12 12 12 12 12 12 12 12 12 12 12 11 11 11 11 11 10 10 10 10 10 10 10 9 9 9 9 9 9 9 9 9 9 9 9 8 8 8 8 8 8 8 8
12 12 12 12 12 12 12 12 12 11 11 11 11 11 10 10 10 10 10 10 9 9 9 9 9 9 9 9 9 9 8 8 8 8 8 8 8 8 8 8 8 8 8
11 11 11 11 11 11 11 11 11 11 11 11 10 10 10 10 10 9 9 9 9 9 9 9 9 9 8 8 8 8 8 8 8 8 8 7 7 7 7 7 7 7 7
11 11 11 11 11 11 11 11 11 11 10 10 10 10 10 9 9 9 9 9 9 9 9 8 8 8 8 8 8 8 8 8 7 7 7 7 7 7 7 7 7 7 7
11 11 11 11 11 11 11 11 10 10 10 10 10 9 9 9 9 9 8 8 8 8 8 8 8 8 8 8 8 7 7 7 7 7 7 7 7 7 6 6 6 7 7
11 11 11 10 10 10 10 10 10 10 10 9 9 9 9 8 8 8 8 8 8 8 8 8 7 7 7 7 7 7 7 7 7 7 7 7 6 6 6 6 6 6 6
Wind_Speed
7 6 5 5 4 3 2 2 2 2 1 1 2 2 2 3 3 3 4 4 4 4 4 4 4 5 4 4 4 3 3 3 5 4 3 2 2 1 2 3 4 6 8
6 6 5 5 4 4 3 2 2 2 2 2 2 2 3 3 3 3 4 4 3 3 4 4 4 5 4 4 3 4 4 4 4 5 3 3 3 2 3 4 4 5 5
6 5 4 4 4 3 3 3 2 2 2 2 2 2 2 2 3 3 2 3 3 3 3 4 4 4 5 4 4 4 4 5 3 4 4 3 2 2 3 3 3 2 3
5 4 3 3 3 3 3 2 2 2 2 1 2 2 2 2 2 2 2 2 3 3 3 4 4 4 5 5 5 4 4 4 4 4 4 3 3 3 2 2 2 2 1
4 4 3 2 1 1 1 1 1 2 2 2 2 2 2 2 2 2 3 3 3 4 4 4 4 4 5 5 5 4 4 4 3 3 3 3 3 3 2 2 3 2 2
4 3 3 3 2 2 2 1 1 1 1 1 2 2 3 2 1 2 2 3 4 4 5 5 5 5 5 6 6 6 5 4 4 4 3 3 4 3 2 2 3 2 2
4 3 3 3 2 2 2 1 2 1 1 1 2 2 2 1 1 2 2 3 4 5 5 5 6 6 3 3 4 5 6 7 7 5 5 5 4 4 3 3 4 3 3
4 3 2 2 1 1 1 1 1 1 2 2 2 3 2 2 2 2 3 4 5 5 5 5 4 4 5 4 5 5 4 5 6 5 5 5 5 4 4 5 5 4 3
3 2 1 1 1 1 1 1 1 2 2 3 3 2 2 2 1 2 3 4 4 5 4 4 4 4 4 4 4 5 5 5 6 5 5 6 7 6 4 3 3 2 3
2 2 2 1 1 2 1 2 2 2 3 3 2 2 3 3 2 2 2 3 4 4 4 3 3 3 3 3 4 5 6 5 5 6 5 5 5 5 5 4 3 3 3
1 1 1 1 2 2 2 1 2 3 3 3 3 3 3 2 2 2 2 3 4 5 5 4 3 3 4 5 6 5 7 6 6 5 5 4 4 3 3 3 3 3 3
1 0 0 1 2 2 1 2 3 4 4 4 4 4 3 1 1 2 4 5 5 5 6 5 4 4 6 7 7 7 8 7 5 5 4 4 3 2 3 2 3 3 4
1 1 1 1 1 2 2 3 3 3 3 4 3 3 1 1 1 1 4 6 7 5 5 7 6 7 7 6 8 9 7 5 5 4 4 4 3 2 2 1 2 3 3
1 1 2 2 2 1 2 3 2 2 2 3 3 3 3 1 2 2 3 4 5 5 5 7 8 9 7 7 6 5 4 4 4 4 3 3 2 2 1 1 2 2 2
1 2 3 3 2 1 1 2 2 1 1 2 2 2 3 3 3 3 3 4 4 4 5 5 5 4 3 3 3 2 2 2 3 3 3 3 3 2 2 1 2 3 3
2 3 3 3 1 1 1 1 2 1 1 1 1 2 2 3 5 5 6 6 6 5 4 5 5 4 4 4 3 3 2 2 3 3 3 3 3 3 3 2 2 3 3
3 3 3 3 3 3 3 2 2 2 3 4 4 4 4 5 6 6 7 7 7 4 3 5 4 3 4 3 3 2 2 2 2 3 3 3 3 3 2 2 2 2 3
4 4 4 3 4 3 3 3 4 4 3 3 4 6 6 6 7 8 6 4 4 3 4 4 3 3 3 3 3 2 2 2 2 3 3 3 2 3 3 3 2 2 3
4 3 3 3 4 4 4 5 4 4 4 3 2 2 4 5 6 6 4 3 5 4 4 3 2 2 2 2 2 2 3 2 3 3 3 3 3 3 3 3 2 2 3
3 4 4 5 5 4 4 4 4 4 4 2 1 1 1 2 3 2 3 3 4 4 4 3 3 2 3 3 2 2 2 3 3 2 2 3 3 3 3 3 2 2 2
4 4 5 6 5 4 4 5 4 3 4 3 2 1 1 3 3 3 3 3 4 4 3 3 3 2 2 2 2 3 3 3 3 3 3 3 3 4 3 2 2 2 3
5 5 5 5 4 3 4 5 4 4 4 4 4 2 3 3 4 4 4 3 3 3 3 3 3 2 2 2 2 3 4 3 3 3 3 3 3 3 3 3 3 3 3
5 6 5 5 4 4 5 5 4 4 4 4 4 3 3 3 4 3 3 3 3 3 3 3 3 3 2 2 2 2 2 3 3 4 4 4 4 4 3 4 4 4 4
5 6 6 5 4 4 5 4 4 4 4 4 4 3 3 3 4 4 3 3 3 3 3 3 3 3 3 2 2 2 2 2 3 4 5 5 5 5 5 4 5 5 5
5 5 5 4 4 4 4 4 4 4 4 4 4 4 4 3 3 3 3 3 3 4 4 3 3 2 3 3 3 3 2 2 3 4 4 4 5 6 6 6 5 5 4
5 4 4 4 3 3 3 3 4 4 4 4 3 3 3 3 3 3 3 3 4 3 3 3 4 4 3 2 3 3 2 2 3 4 4 5 5 5 5 5 6 5 5
Wind_Direction
170 173 172 175 188 198 209 225 240 267 275 261 267 262 257 258 256 254 258 263 263 269 276 274 275 276 286 298 301 297 285 277 276 285 285 264 276 233 182 218 204 196 205
167 170 179 175 181 194 204 224 237 248 260 264 262 267 275 280 279 271 273 278 271 271 275 279 279 279 281 279 291 295 290 277 270 273 279 271 262 238 209 224 226 216 210
168 165 173 184 187 197 206 211 222 233 255 273 277 265 272 284 283 279 275 292 298 290 287 286 289 291 292 291 284 284 284 288 284 281 283 282 271 259 229 238 250 246 231
154 155 159 185 198 203 210 199 209 219 232 243 264 265 265 271 277 284 282 274 282 295 295 290 292 289 290 290 287 283 281 287 286 278 275 279 281 273 242 246 266 266 255
134 146 150 159 178 186 197 211 224 222 226 224 251 266 266 255 270 292 288 291 297 291 289 284 283 280 278 279 284 290 294 288 283 278 276 275 281 289 272 256 264 268 262
138 151 153 161 168 178 179 182 207 245 268 248 251 264 277 287 346 23 335 321 311 301 298 297 288 268 272 265 267 276 276 279 284 281 276 278 277 274 273 273 260 263 267
152 154 154 159 173 178 203 193 210 225 252 265 284 280 282 290 305 326 329 299 294 293 294 295 297 308 308 296 283 271 263 255 249 255 269 273 278 281 273 264 257 251 259
146 150 153 162 187 205 213 222 231 230 249 261 261 267 281 288 282 295 304 281 282 284 287 286 285 298 313 315 299 293 283 272 260 249 255 261 266 271 264 255 251 241 242
148 140 146 181 238 244 246 258 266 256 252 257 261 269 277 281 255 284 291 281 285 294 298 311 306 297 318 318 301 300 300 298 294 281 261 260 260 263 264 262 253 239 259
160 160 165 173 246 259 263 270 271 269 271 272 272 263 267 273 260 255 253 279 291 296 290 282 290 286 298 303 293 296 294 296 305 306 292 273 260 257 248 230 232 244 259
152 177 199 205 227 230 239 259 273 271 270 270 264 259 253 247 235 231 245 271 292 299 297 292 292 289 275 269 270 273 276 283 287 283 281 276 261 253 246 231 223 229 254
82 57 333 281 266 247 258 264 260 264 265 260 258 252 234 194 221 228 236 248 272 284 292 297 301 296 283 272 267 270 278 283 276 273 271 272 274 266 262 243 224 221 232
169 215 243 262 276 274 254 260 261 266 280 286 284 281 266 226 213 253 248 258 265 271 290 300 297 286 284 271 258 262 267 265 266 270 272 269 265 263 259 258 246 240 236
210 239 245 241 240 251 269 272 263 260 273 286 298 304 315 333 355 348 318 301 295 288 296 299 287 275 268 267 273 263 251 254 261 268 276 276 266 264 262 257 265 259 249
254 267 268 261 245 238 266 303 295 304 280 266 294 306 311 311 312 311 311 310 308 310 310 294 288 287 288 281 278 278 280 282 279 282 283 285 285 281 274 261 262 259 253
258 264 278 280 262 253 244 302 0 236 185 164 236 269 285 277 283 297 304 303 299 299 306 293 296 300 303 305 305 306 306 308 307 300 293 288 286 282 281 285 281 276 268
265 277 285 286 276 255 250 247 256 265 249 247 246 250 250 265 279 285 291 303 300 290 275 280 291 302 306 309 311 316 317 319 317 316 308 300 302 301 294 289 286 286 289
255 253 265 270 274 270 262 263 257 252 251 248 240 234 241 253 266 274 284 305 294 271 276 290 302 302 302 309 313 315 313 312 314 311 307 306 313 310 301 298 309 315 294
279 275 277 283 276 272 269 267 265 263 266 257 235 231 244 262 264 267 261 266 282 289 291 298 307 309 312 316 319 318 312 305 307 306 307 305 308 306 303 308 313 312 303
270 273 271 277 273 268 268 273 274 272 275 270 260 273 264 268 278 271 255 266 281 288 297 300 306 315 318 312 309 302 302 309 308 304 309 309 315 316 303 299 316 320 315
282 273 261 268 273 283 290 291 292 294 295 296 296 275 243 275 287 286 279 275 285 292 292 290 288 299 307 310 314 310 308 314 318 312 303 297 297 299 304 312 316 309 306
285 281 270 268 278 284 288 286 284 286 286 287 287 271 245 267 287 289 285 286 287 284 292 300 295 290 292 298 310 315 312 316 316 318 314 306 302 305 310 304 295 296 296
272 273 274 276 276 273 271 275 276 278 282 283 283 283 269 276 286 293 297 297 297 300 307 312 307 297 293 295 309 308 309 316 319 315 310 305 301 293 287 286 285 283 283
272 271 273 275 274 268 270 274 276 276 279 283 286 287 283 281 288 291 294 301 304 306 305 305 303 307 312 319 326 327 334 334 329 316 310 300 293 288 283 275 274 272 271
269 272 273 274 274 275 281 283 283 284 287 289 290 289 289 293 299 301 303 300 303 304 307 308 313 326 333 343 337 329 359 11 344 326 306 292 286 284 279 276 273 272 266
272 271 274 274 272 278 287 294 292 291 291 297 301 306 307 303 300 299 301 302 299 302 313 321 322 325 336 349 339 358 31 346 326 315 299 284 278 276 280 279 276 268 261
Height
1524 1526 1528 1529 1531 1532 1533 1534 1534 1534 1535 1535 1535 1535 1535 1535 1535 1536 1536 1536 1536 1535 1535 1535 1534 1534 1533 1533 1533 1532 1532 1532 1530 1529 1528 1528 1528 1527 1527 1527 1526 1526 1525
1522 1524 1526 1527 1529 1530 1530 1531 1531 1532 1532 1533 1533 1532 1532 1533 1533 1533 1533 1533 1533 1533 1532 1532 1531 1531 1530 1529 1529 1529 1528 1528 1527 1526 1525 1525 1525 1524 1523 1523 1523 1522 1522
1521 1522 1524 1525 1526 1527 1528 1529 1529 1529 1529 1530 1530 1530 1530 1530 1530 1530 1530 1530 1530 1529 1529 1528 1528 1527 1527 1526 1526 1525 1525 1524 1524 1523 1522 1522 1522 1521 1521 1520 1520 1519 1519
1520 1520 1522 1523 1524 1525 1526 1526 1526 1526 1527 1527 1527 1527 1527 1527 1527 1527 1527 1526 1526 1526 1526 1525 1525 1524 1523 1523 1522 1522 1521 1521 1520 1520 1519 1519 1518 1518 1517 1516 1516 1516 1516
1518 1519 1520 1521 1522 1523 1523 1523 1524 1524 1524 1524 1524 1524 1525 1524 1524 1524 1524 1523 1523 1523 1522 1522 1521 1521 1520 1520 1519 1518 1518 1517 1517 1516 1516 1515 1514 1514 1513 1513 1513 1512 1512
1517 1518 1519 1520 1520 1521 1521 1521 1522 1522 1522 1522 1521 1522 1522 1522 1522 1521 1521 1520 1520 1519 1518 1518 1518 1517 1517 1516 1516 1515 1515 1514 1513 1513 1512 1511 1510 1510 1510 1510 1509 1509 1508
1515 1517 1518 1518 1519 1519 1519 1519 1519 1519 1519 1518 1518 1518 1518 1519 1518 1518 1517 1517 1516 1515 1515 1514 1514 1514 1513 1512 1511 1511 1510 1510 1510 1509 1508 1507 1507 1507 1507 1506 1506 1505 1505
1514 1514 1516 1516 1516 1517 1517 1517 1517 1516 1516 1516 1516 1516 1515 1515 1515 1515 1514 1514 1513 1512 1511 1510 1510 1509 1509 1508 1507 1507 1506 1505 1505 1504 1504 1503 1503 1503 1503 1503 1503 1502 1501
1512 1512 1513 1513 1514 1514 1514 1514 1514 1513 1513 1513 1513 1513 1513 1512 1512 1511 1511 1510 1509 1508 1507 1506 1506 1505 1505 1504 1503 1502 1502 1501 1501 1501 1500 1499 1499 1499 1499 1499 1498 1498 1497
1509 1510 1511 1511 1511 1511 1511 1511 1511 1511 1510 1510 1510 1509 1509 1509 1508 1508 1507 1506 1505 1504 1504 1503 1502 1501 1500 1500 1499 1498 1497 1496 1496 1496 1496 1495 1494 1494 1494 1494 1494 1494 1493
1508 1508 1508 1508 1507 1508 1508 1508 1508 1508 1507 1507 1507 1506 1506 1505 1504 1504 1503 1503 1502 1501 1500 1499 1498 1497 1496 1495 1495 1494 1493 1493 1492 1491 1491 1490 1490 1490 1490 1489 1489 1490 1489
1505 1505 1505 1505 1505 1505 1505 1505 1504 1504 1504 1504 1503 1503 1502 1501 1501 1500 1499 1499 1498 1497 1496 1495 1494 1493 1492 1491 1490 1490 1489 1489 1488 1487 1487 1486 1486 1486 1485 1485 1485 1485 1485
1503 1503 1503 1503 1503 1503 1502 1502 1501 1502 1501 1501 1500 1500 1499 1498 1497 1496 1496 1495 1494 1493 1492 1491 1490 1488 1487 1486 1486 1485 1484 1484 1484 1483 1483 1482 1482 1482 1481 1481 1481 1481 1481
1501 1501 1501 1500 1500 1500 1500 1499 1499 1498 1498 1498 1497 1497 1496 1495 1494 1493 1492 1491 1490 1488 1487 1486 1485 1484 1483 1482 1481 1481 1480 1480 1480 1480 1479 1479 1478 1478 1478 1477 1477 1477 1477
1499 1499 1499 1498 1498 1497 1497 1497 1496 1496 1495 1495 1494 1493 1492 1491 1490 1489 1488 1486 1485 1484 1483 1482 1481 1481 1480 1479 1478 1477 1477 1477 1476 1476 1475 1475 1474 1474 1474 1474 1473 1473 1473
1496 1496 1496 1496 1495 1494 1493 1493 1493 1493 1492 1491 1490 1490 1489 1488 1487 1486 1485 1484 1482 1482 1480 1479 1478 1478 1477 1476 1475 1474 1474 1473 1473 1473 1472 1472 1471 1471 1470 1470 1470 1470 1469
1493 1493 1493 1492 1492 1491 1491 1490 1490 1489 1489 1488 1487 1486 1486 1485 1484 1482 1481 1480 1480 1479 1477 1476 1475 1475 1474 1473 1472 1471 1470 1470 1470 1469 1469 1469 1468 1468 1467 1466 1466 1465 1465
1490 1490 1490 1489 1489 1489 1488 1488 1487 1486 1486 1485 1484 1483 1482 1482 1481 1480 1478 1477 1476 1476 1475 1473 1472 1471 1471 1470 1469 1468 1467 1467 1467 1466 1466 1465 1465 1464 1463 1463 1462 1462 1462
1488 1487 1487 1487 1487 1486 1486 1485 1484 1484 1483 1482 1481 1481 1480 1478 1477 1477 1475 1474 1474 1472 1472 1470 1469 1469 1468 1467 1466 1465 1465 1464 1463 1463 1462 1462 1461 1461 1460 1460 1459 1459 1458
1485 1485 1484 1484 1483 1483 1483 1482 1482 1481 1480 1480 1479 1478 1477 1476 1475 1474 1473 1472 1471 1470 1468 1468 1466 1466 1465 1464 1463 1463 1462 1461 1460 1460 1459 1458 1458 1457 1457 1456 1456 1456 1455
1482 1482 1481 1481 1480 1480 1479 1479 1479 1478 1478 1477 1476 1475 1474 1473 1472 1471 1470 1469 1468 1467 1466 1464 1464 1463 1462 1461 1460 1460 1459 1458 1457 1456 1456 1455 1454 1454 1454 1453 1452 1452 1452
1479 1479 1479 1478 1477 1477 1476 1476 1476 1475 1474 1474 1473 1472 1471 1470 1469 1468 1467 1466 1465 1464 1463 1461 1460 1460 1459 1458 1457 1456 1455 1455 1454 1453 1452 1451 1451 1451 1450 1450 1449 1449 1449
1475 1476 1475 1475 1474 1473 1473 1473 1472 1472 1471 1470 1469 1468 1467 1467 1466 1465 1464 1463 1462 1460 1459 1458 1457 1456 1455 1454 1454 1453 1452 1451 1450 1449 1448 1448 1447 1447 1446 1446 1446 1445 1445
1472 1472 1472 1471 1470 1470 1469 1469 1468 1468 1467 1466 1466 1465 1464 1463 1462 1461 1460 1459 1458 1457 1456 1454 1454 1453 1452 1451 1450 1449 1448 1447 1446 1445 1444 1443 1443 1443 1442 1442 1442 1442 1441
1469 1469 1468 1467 1467 1466 1466 1465 1465 1464 1463 1463 1462 1461 1460 1459 1458 1457 1456 1455 1455 1454 1453 1451 1450 1449 1448 1446 1445 1445 1444 1443 1442 1441 1440 1439 1438 1438 1438 1437 1437 1437 1437
1466 1465 1465 1464 1463 1463 1462 1461 1461 1460 1460 1459 1458 1457 1457 1456 1455 1454 1453 1452 1451 1450 1449 1448 1447 1445 1444 1442 1441 1440 1439 1438 1438 1437 1436 1434 1433 1433 1433 1432 1433 1433 1433